Time,TemperatureF,DewpointF,PressureIn,WindDirection,WindDirectionDegrees,WindSpeedMPH,WindSpeedGustMPH,Humidity,HourlyPrecipIn,Conditions,Clouds,dailyrainin,SoftwareType,DateUTC
2013-08-19 00:00:00,64.3,63.4,30.14,NW,323,0.0,1.0,97,0.00,,,0.01,WUHU216DAVISVP2,2013-08-19 04:00:00,
2013-08-19 00:01:00,64.3,63.4,30.14,NW,323,0.0,1.0,97,0.00,,,0.01,WUHU216DAVISVP2,2013-08-19 04:01:00,
2013-08-19 00:06:00,64.2,63.3,30.13,NW,323,0.0,1.0,97,0.00,,,0.01,WUHU216DAVISVP2,2013-08-19 04:06:00,
2013-08-19 00:11:00,64.2,63.3,30.13,NW,323,0.0,1.0,97,0.00,,,0.01,WUHU216DAVISVP2,2013-08-19 04:11:00,
2013-08-19 00:16:00,64.1,63.2,30.13,NW,323,0.0,1.0,97,0.00,,,0.01,WUHU216DAVISVP2,2013-08-19 04:16:00,
2013-08-19 00:21:00,63.9,63.0,30.13,NW,323,0.0,1.0,97,0.00,,,0.01,WUHU216DAVISVP2,2013-08-19 04:21:00,
2013-08-19 00:26:00,63.8,62.6,30.14,NW,323,0.0,1.0,96,0.00,,,0.01,WUHU216DAVISVP2,2013-08-19 04:26:00,
2013-08-19 00:31:00,63.7,62.5,30.14,NW,323,0.0,1.0,96,0.00,,,0.01,WUHU216DAVISVP2,2013-08-19 04:31:00,
2013-08-19 00:36:00,63.7,62.8,30.13,North,8,1.0,2.0,97,0.00,,,0.01,WUHU216DAVISVP2,2013-08-19 04:36:00,
2013-08-19 00:41:00,63.7,62.8,30.13,North,8,0.0,2.0,97,0.00,,,0.01,WUHU216DAVISVP2,2013-08-19 04:41:00,
2013-08-19 00:46:00,63.6,62.7,30.14,North,8,0.0,2.0,97,0.00,,,0.01,WUHU216DAVISVP2,2013-08-19 04:46:00,
2013-08-19 00:51:00,63.5,62.6,30.13,North,8,0.0,2.0,97,0.00,,,0.01,WUHU216DAVISVP2,2013-08-19 04:51:00,
2013-08-19 00:56:00,63.5,62.6,30.13,North,8,0.0,1.0,97,0.00,,,0.01,WUHU216DAVISVP2,2013-08-19 04:56:00,
2013-08-19 01:01:00,63.4,62.5,30.12,North,8,0.0,1.0,97,0.00,,,0.01,WUHU216DAVISVP2,2013-08-19 05:01:00,
2013-08-19 01:06:00,63.3,62.4,30.13,North,8,0.0,1.0,97,0.00,,,0.01,WUHU216DAVISVP2,2013-08-19 05:06:00,
2013-08-19 01:11:00,63.2,62.3,30.13,North,8,0.0,1.0,97,0.00,,,0.01,WUHU216DAVISVP2,2013-08-19 05:11:00,
2013-08-19 01:16:00,63.2,62.3,30.13,North,8,0.0,0.0,97,0.00,,,0.01,WUHU216DAVISVP2,2013-08-19 05:16:00,
2013-08-19 01:21:00,63.3,62.4,30.13,North,8,0.0,1.0,97,0.00,,,0.01,WUHU216DAVISVP2,2013-08-19 05:21:00,
2013-08-19 01:26:00,63.3,62.4,30.13,North,8,0.0,1.0,97,0.00,,,0.01,WUHU216DAVISVP2,2013-08-19 05:26:00,
2013-08-19 01:31:00,63.2,62.3,30.13,North,8,0.0,1.0,97,0.00,,,0.01,WUHU216DAVISVP2,2013-08-19 05:31:00,
2013-08-19 01:36:00,63.2,62.3,30.13,North,8,0.0,1.0,97,0.00,,,0.01,WUHU216DAVISVP2,2013-08-19 05:36:00,
2013-08-19 01:41:00,63.2,62.3,30.13,North,8,0.0,0.0,97,0.00,,,0.01,WUHU216DAVISVP2,2013-08-19 05:41:00,
2013-08-19 01:46:00,63.2,62.3,30.13,North,8,0.0,0.0,97,0.00,,,0.01,WUHU216DAVISVP2,2013-08-19 05:46:00,
2013-08-19 01:51:00,63.2,62.3,30.13,North,8,0.0,0.0,97,0.00,,,0.01,WUHU216DAVISVP2,2013-08-19 05:51:00,
2013-08-19 01:56:00,63.2,62.3,30.12,North,8,0.0,0.0,97,0.00,,,0.01,WUHU216DAVISVP2,2013-08-19 05:56:00,
2013-08-19 02:01:00,63.1,62.2,30.12,North,8,0.0,0.0,97,0.00,,,0.01,WUHU216DAVISVP2,2013-08-19 06:01:00,
2013-08-19 02:06:00,63.1,62.2,30.13,North,8,0.0,0.0,97,0.00,,,0.01,WUHU216DAVISVP2,2013-08-19 06:06:00,
2013-08-19 02:11:00,63.1,62.2,30.12,North,8,0.0,1.0,97,0.00,,,0.01,WUHU216DAVISVP2,2013-08-19 06:11:00,
2013-08-19 02:16:00,63.1,62.2,30.12,North,8,0.0,1.0,97,0.00,,,0.01,WUHU216DAVISVP2,2013-08-19 06:16:00,
2013-08-19 02:21:00,63.2,62.3,30.12,North,8,0.0,1.0,97,0.00,,,0.01,WUHU216DAVISVP2,2013-08-19 06:21:00,
2013-08-19 02:26:00,63.2,62.3,30.12,North,8,0.0,1.0,97,0.00,,,0.01,WUHU216DAVISVP2,2013-08-19 06:26:00,
2013-08-19 02:31:00,63.1,62.2,30.12,North,8,0.0,0.0,97,0.00,,,0.01,WUHU216DAVISVP2,2013-08-19 06:31:00,
2013-08-19 02:36:00,63.1,62.2,30.11,North,8,0.0,1.0,97,0.00,,,0.01,WUHU216DAVISVP2,2013-08-19 06:36:00,
2013-08-19 02:41:00,63.1,62.2,30.11,North,8,0.0,1.0,97,0.00,,,0.01,WUHU216DAVISVP2,2013-08-19 06:41:00,
2013-08-19 02:46:00,63.0,62.1,30.11,North,8,0.0,1.0,97,0.00,,,0.01,WUHU216DAVISVP2,2013-08-19 06:46:00,
2013-08-19 02:51:00,62.9,62.0,30.11,North,8,0.0,1.0,97,0.00,,,0.01,WUHU216DAVISVP2,2013-08-19 06:51:00,
2013-08-19 02:56:00,62.9,62.0,30.10,North,8,0.0,1.0,97,0.00,,,0.01,WUHU216DAVISVP2,2013-08-19 06:56:00,
2013-08-19 03:01:00,62.8,61.9,30.10,North,8,0.0,1.0,97,0.00,,,0.01,WUHU216DAVISVP2,2013-08-19 07:01:00,
2013-08-19 03:06:00,62.8,61.9,30.10,North,8,0.0,1.0,97,0.00,,,0.01,WUHU216DAVISVP2,2013-08-19 07:06:00,
2013-08-19 03:11:00,62.8,61.9,30.10,North,8,0.0,1.0,97,0.00,,,0.01,WUHU216DAVISVP2,2013-08-19 07:11:00,
2013-08-19 03:16:00,62.8,61.9,30.11,North,8,0.0,1.0,97,0.00,,,0.01,WUHU216DAVISVP2,2013-08-19 07:16:00,
2013-08-19 03:21:00,62.8,61.9,30.11,North,8,0.0,1.0,97,0.00,,,0.01,WUHU216DAVISVP2,2013-08-19 07:21:00,
2013-08-19 03:26:00,62.8,61.9,30.10,North,8,0.0,1.0,97,0.00,,,0.01,WUHU216DAVISVP2,2013-08-19 07:26:00,
2013-08-19 03:31:00,62.9,62.0,30.10,North,8,0.0,1.0,97,0.00,,,0.01,WUHU216DAVISVP2,2013-08-19 07:31:00,
2013-08-19 03:36:00,62.9,62.0,30.10,North,8,0.0,1.0,97,0.00,,,0.01,WUHU216DAVISVP2,2013-08-19 07:36:00,
2013-08-19 03:41:00,62.9,62.0,30.11,North,8,0.0,1.0,97,0.00,,,0.01,WUHU216DAVISVP2,2013-08-19 07:41:00,
2013-08-19 03:46:00,62.9,62.0,30.10,North,8,0.0,0.0,97,0.00,,,0.01,WUHU216DAVISVP2,2013-08-19 07:46:00,
2013-08-19 03:51:00,62.9,62.0,30.10,North,8,1.0,1.0,97,0.00,,,0.01,WUHU216DAVISVP2,2013-08-19 07:51:00,
2013-08-19 03:56:00,62.8,61.9,30.10,North,8,0.0,2.0,97,0.00,,,0.01,WUHU216DAVISVP2,2013-08-19 07:56:00,
2013-08-19 04:01:00,62.7,61.8,30.10,North,8,0.0,2.0,97,0.00,,,0.01,WUHU216DAVISVP2,2013-08-19 08:01:00,
2013-08-19 04:06:00,62.7,61.8,30.10,North,8,0.0,2.0,97,0.00,,,0.01,WUHU216DAVISVP2,2013-08-19 08:06:00,
2013-08-19 04:11:00,62.6,61.7,30.10,North,8,0.0,2.0,97,0.00,,,0.01,WUHU216DAVISVP2,2013-08-19 08:11:00,
2013-08-19 04:16:00,62.5,61.6,30.10,North,8,0.0,2.0,97,0.00,,,0.01,WUHU216DAVISVP2,2013-08-19 08:16:00,
2013-08-19 04:21:00,62.5,61.6,30.10,North,8,0.0,1.0,97,0.00,,,0.01,WUHU216DAVISVP2,2013-08-19 08:21:00,
2013-08-19 04:26:00,62.5,61.6,30.10,North,8,0.0,1.0,97,0.00,,,0.01,WUHU216DAVISVP2,2013-08-19 08:26:00,
2013-08-19 04:31:00,62.5,61.6,30.10,North,8,0.0,1.0,97,0.00,,,0.01,WUHU216DAVISVP2,2013-08-19 08:31:00,
2013-08-19 04:36:00,62.6,61.7,30.10,North,8,0.0,1.0,97,0.00,,,0.01,WUHU216DAVISVP2,2013-08-19 08:36:00,
2013-08-19 04:41:00,62.5,61.6,30.10,North,8,0.0,1.0,97,0.00,,,0.01,WUHU216DAVISVP2,2013-08-19 08:41:00,
2013-08-19 04:46:00,62.5,61.6,30.10,North,8,0.0,0.0,97,0.00,,,0.01,WUHU216DAVISVP2,2013-08-19 08:46:00,
2013-08-19 04:51:00,62.4,61.5,30.09,North,8,0.0,0.0,97,0.00,,,0.01,WUHU216DAVISVP2,2013-08-19 08:51:00,
2013-08-19 04:56:00,62.4,61.5,30.10,North,8,0.0,0.0,97,0.00,,,0.01,WUHU216DAVISVP2,2013-08-19 08:56:00,
2013-08-19 05:01:00,62.4,61.5,30.09,North,8,0.0,0.0,97,0.00,,,0.01,WUHU216DAVISVP2,2013-08-19 09:01:00,
2013-08-19 05:06:00,62.3,61.4,30.09,North,8,0.0,0.0,97,0.00,,,0.01,WUHU216DAVISVP2,2013-08-19 09:06:00,
2013-08-19 05:11:00,62.4,61.5,30.10,North,8,0.0,0.0,97,0.00,,,0.01,WUHU216DAVISVP2,2013-08-19 09:11:00,
2013-08-19 05:16:00,62.3,61.4,30.10,North,8,0.0,1.0,97,0.00,,,0.01,WUHU216DAVISVP2,2013-08-19 09:16:00,
2013-08-19 05:21:00,62.3,61.4,30.10,North,8,0.0,1.0,97,0.00,,,0.01,WUHU216DAVISVP2,2013-08-19 09:21:00,
2013-08-19 05:26:00,62.3,61.4,30.09,North,8,0.0,1.0,97,0.00,,,0.01,WUHU216DAVISVP2,2013-08-19 09:26:00,
2013-08-19 05:31:00,62.2,61.3,30.10,North,8,0.0,1.0,97,0.00,,,0.01,WUHU216DAVISVP2,2013-08-19 09:31:00,
2013-08-19 05:36:00,62.2,61.3,30.10,North,8,0.0,1.0,97,0.00,,,0.01,WUHU216DAVISVP2,2013-08-19 09:36:00,
2013-08-19 05:41:00,62.1,61.2,30.09,North,8,0.0,1.0,97,0.00,,,0.01,WUHU216DAVISVP2,2013-08-19 09:41:00,
2013-08-19 05:46:00,62.1,61.2,30.09,North,8,0.0,1.0,97,0.00,,,0.01,WUHU216DAVISVP2,2013-08-19 09:46:00,
2013-08-19 05:51:00,62.0,61.1,30.09,North,8,0.0,1.0,97,0.00,,,0.01,WUHU216DAVISVP2,2013-08-19 09:51:00,
2013-08-19 05:56:00,62.0,61.1,30.09,North,8,0.0,1.0,97,0.00,,,0.01,WUHU216DAVISVP2,2013-08-19 09:56:00,
2013-08-19 06:01:00,61.9,61.0,30.09,North,8,0.0,1.0,97,0.00,,,0.01,WUHU216DAVISVP2,2013-08-19 10:01:00,
2013-08-19 06:06:00,61.9,61.0,30.09,North,8,0.0,1.0,97,0.00,,,0.01,WUHU216DAVISVP2,2013-08-19 10:06:00,
2013-08-19 06:11:00,61.8,60.9,30.10,North,8,0.0,1.0,97,0.00,,,0.01,WUHU216DAVISVP2,2013-08-19 10:11:00,
2013-08-19 06:16:00,61.8,60.9,30.10,North,8,0.0,1.0,97,0.00,,,0.01,WUHU216DAVISVP2,2013-08-19 10:16:00,
2013-08-19 06:21:00,61.8,60.9,30.10,North,8,0.0,1.0,97,0.00,,,0.01,WUHU216DAVISVP2,2013-08-19 10:21:00,
2013-08-19 06:26:00,61.7,60.8,30.10,North,8,0.0,1.0,97,0.00,,,0.01,WUHU216DAVISVP2,2013-08-19 10:26:00,
2013-08-19 06:31:00,61.7,60.8,30.10,North,8,0.0,0.0,97,0.00,,,0.01,WUHU216DAVISVP2,2013-08-19 10:31:00,
2013-08-19 06:36:00,61.8,61.2,30.10,North,8,0.0,0.0,98,0.00,,,0.01,WUHU216DAVISVP2,2013-08-19 10:36:00,
2013-08-19 06:41:00,61.8,61.2,30.10,North,8,0.0,0.0,98,0.00,,,0.01,WUHU216DAVISVP2,2013-08-19 10:41:00,
2013-08-19 06:46:00,61.8,61.2,30.10,North,8,0.0,0.0,98,0.00,,,0.01,WUHU216DAVISVP2,2013-08-19 10:46:00,
2013-08-19 06:51:00,61.8,61.2,30.10,North,8,0.0,0.0,98,0.00,,,0.01,WUHU216DAVISVP2,2013-08-19 10:51:00,
2013-08-19 06:56:00,61.8,61.2,30.10,North,8,0.0,0.0,98,0.00,,,0.01,WUHU216DAVISVP2,2013-08-19 10:56:00,
2013-08-19 07:01:00,61.8,61.2,30.10,North,8,0.0,0.0,98,0.00,,,0.01,WUHU216DAVISVP2,2013-08-19 11:01:00,
2013-08-19 07:06:00,61.8,61.2,30.10,North,8,0.0,1.0,98,0.00,,,0.01,WUHU216DAVISVP2,2013-08-19 11:06:00,
2013-08-19 07:11:00,61.8,61.2,30.10,North,8,0.0,1.0,98,0.00,,,0.01,WUHU216DAVISVP2,2013-08-19 11:11:00,
2013-08-19 07:16:00,61.8,61.2,30.10,North,8,0.0,1.0,98,0.03,,,0.04,WUHU216DAVISVP2,2013-08-19 11:16:00,
2013-08-19 07:21:00,61.9,61.3,30.10,North,8,0.0,1.0,98,0.05,,,0.06,WUHU216DAVISVP2,2013-08-19 11:21:00,
2013-08-19 07:26:00,61.9,61.3,30.10,North,8,0.0,0.0,98,0.06,,,0.07,WUHU216DAVISVP2,2013-08-19 11:26:00,
2013-08-19 07:31:00,62.0,61.4,30.10,North,8,0.0,1.0,98,0.07,,,0.08,WUHU216DAVISVP2,2013-08-19 11:31:00,
2013-08-19 07:36:00,62.0,61.4,30.10,North,8,0.0,1.0,98,0.10,,,0.11,WUHU216DAVISVP2,2013-08-19 11:36:00,
2013-08-19 07:41:00,62.0,61.4,30.10,North,8,0.0,1.0,98,0.12,,,0.13,WUHU216DAVISVP2,2013-08-19 11:41:00,
2013-08-19 07:46:00,62.1,61.5,30.10,North,8,0.0,1.0,98,0.13,,,0.14,WUHU216DAVISVP2,2013-08-19 11:46:00,
2013-08-19 07:51:00,62.1,61.5,30.10,North,8,0.0,1.0,98,0.13,,,0.14,WUHU216DAVISVP2,2013-08-19 11:51:00,
2013-08-19 07:56:00,62.1,61.5,30.10,North,8,0.0,1.0,98,0.13,,,0.14,WUHU216DAVISVP2,2013-08-19 11:56:00,
2013-08-19 08:01:00,62.2,61.6,30.10,North,8,0.0,1.0,98,0.13,,,0.14,WUHU216DAVISVP2,2013-08-19 12:01:00,
2013-08-19 08:06:00,62.1,61.5,30.10,North,8,0.0,1.0,98,0.13,,,0.14,WUHU216DAVISVP2,2013-08-19 12:06:00,
2013-08-19 08:11:00,62.1,61.5,30.10,North,8,0.0,1.0,98,0.13,,,0.14,WUHU216DAVISVP2,2013-08-19 12:11:00,
2013-08-19 08:16:00,62.1,61.5,30.10,North,8,0.0,1.0,98,0.10,,,0.14,WUHU216DAVISVP2,2013-08-19 12:16:00,
2013-08-19 08:21:00,62.2,61.6,30.10,North,8,1.0,1.0,98,0.08,,,0.14,WUHU216DAVISVP2,2013-08-19 12:21:00,
2013-08-19 08:26:00,62.2,61.6,30.10,North,8,0.0,1.0,98,0.07,,,0.14,WUHU216DAVISVP2,2013-08-19 12:26:00,
2013-08-19 08:31:00,62.3,61.7,30.11,North,8,0.0,1.0,98,0.05,,,0.14,WUHU216DAVISVP2,2013-08-19 12:31:00,
2013-08-19 08:36:00,62.4,61.8,30.11,North,8,0.0,1.0,98,0.03,,,0.14,WUHU216DAVISVP2,2013-08-19 12:36:00,
2013-08-19 08:41:00,62.5,61.9,30.11,North,8,0.0,1.0,98,0.01,,,0.14,WUHU216DAVISVP2,2013-08-19 12:41:00,
2013-08-19 08:46:00,62.6,62.0,30.11,North,8,0.0,1.0,98,0.00,,,0.14,WUHU216DAVISVP2,2013-08-19 12:46:00,
2013-08-19 08:51:00,62.6,62.0,30.11,North,8,0.0,0.0,98,0.00,,,0.14,WUHU216DAVISVP2,2013-08-19 12:51:00,
2013-08-19 08:56:00,62.6,62.0,30.11,North,8,0.0,0.0,98,0.00,,,0.14,WUHU216DAVISVP2,2013-08-19 12:56:00,
2013-08-19 09:01:00,62.7,62.1,30.11,North,8,0.0,0.0,98,0.00,,,0.14,WUHU216DAVISVP2,2013-08-19 13:01:00,
2013-08-19 09:06:00,62.7,62.1,30.11,North,8,0.0,0.0,98,0.01,,,0.15,WUHU216DAVISVP2,2013-08-19 13:06:00,
2013-08-19 09:11:00,62.8,62.2,30.11,North,8,0.0,0.0,98,0.01,,,0.15,WUHU216DAVISVP2,2013-08-19 13:11:00,
2013-08-19 09:16:00,62.9,62.3,30.11,North,8,0.0,0.0,98,0.01,,,0.15,WUHU216DAVISVP2,2013-08-19 13:16:00,
2013-08-19 09:21:00,62.9,62.3,30.10,North,8,0.0,0.0,98,0.02,,,0.16,WUHU216DAVISVP2,2013-08-19 13:21:00,
2013-08-19 09:26:00,62.9,62.3,30.11,North,8,0.0,0.0,98,0.03,,,0.17,WUHU216DAVISVP2,2013-08-19 13:26:00,
2013-08-19 09:31:00,63.0,62.4,30.10,North,8,0.0,0.0,98,0.03,,,0.17,WUHU216DAVISVP2,2013-08-19 13:31:00,
2013-08-19 09:36:00,63.1,62.5,30.10,North,8,0.0,0.0,98,0.03,,,0.17,WUHU216DAVISVP2,2013-08-19 13:36:00,
2013-08-19 09:41:00,63.3,62.7,30.10,North,8,0.0,1.0,98,0.03,,,0.17,WUHU216DAVISVP2,2013-08-19 13:41:00,
2013-08-19 09:46:00,63.4,62.8,30.10,North,8,0.0,1.0,98,0.04,,,0.18,WUHU216DAVISVP2,2013-08-19 13:46:00,
2013-08-19 09:51:00,63.4,62.8,30.10,North,8,0.0,1.0,98,0.04,,,0.18,WUHU216DAVISVP2,2013-08-19 13:51:00,
2013-08-19 09:56:00,63.5,62.9,30.10,North,8,0.0,1.0,98,0.04,,,0.18,WUHU216DAVISVP2,2013-08-19 13:56:00,
2013-08-19 10:01:00,63.6,63.0,30.10,North,8,0.0,0.0,98,0.04,,,0.18,WUHU216DAVISVP2,2013-08-19 14:01:00,
2013-08-19 10:06:00,63.6,63.0,30.10,North,8,0.0,0.0,98,0.03,,,0.18,WUHU216DAVISVP2,2013-08-19 14:06:00,
2013-08-19 10:11:00,63.6,63.0,30.10,North,8,0.0,0.0,98,0.03,,,0.18,WUHU216DAVISVP2,2013-08-19 14:11:00,
2013-08-19 10:16:00,63.9,63.3,30.10,North,8,0.0,2.0,98,0.03,,,0.18,WUHU216DAVISVP2,2013-08-19 14:16:00,
2013-08-19 10:21:00,64.1,63.5,30.10,North,8,0.0,2.0,98,0.02,,,0.18,WUHU216DAVISVP2,2013-08-19 14:21:00,
2013-08-19 10:26:00,64.2,63.6,30.10,North,8,0.0,2.0,98,0.01,,,0.18,WUHU216DAVISVP2,2013-08-19 14:26:00,
2013-08-19 10:31:00,64.2,63.3,30.10,North,8,0.0,2.0,97,0.01,,,0.18,WUHU216DAVISVP2,2013-08-19 14:31:00,
2013-08-19 10:36:00,64.3,63.4,30.09,North,8,0.0,1.0,97,0.01,,,0.18,WUHU216DAVISVP2,2013-08-19 14:36:00,
2013-08-19 10:41:00,64.6,63.7,30.09,North,8,0.0,1.0,97,0.01,,,0.18,WUHU216DAVISVP2,2013-08-19 14:41:00,
2013-08-19 10:46:00,64.9,64.0,30.09,North,8,0.0,1.0,97,0.00,,,0.18,WUHU216DAVISVP2,2013-08-19 14:46:00,
2013-08-19 10:51:00,65.1,64.2,30.09,North,8,0.0,1.0,97,0.00,,,0.18,WUHU216DAVISVP2,2013-08-19 14:51:00,
2013-08-19 10:56:00,65.2,64.0,30.09,North,8,0.0,1.0,96,0.00,,,0.18,WUHU216DAVISVP2,2013-08-19 14:56:00,
2013-08-19 11:01:00,65.4,64.2,30.09,North,8,0.0,1.0,96,0.00,,,0.18,WUHU216DAVISVP2,2013-08-19 15:01:00,
2013-08-19 11:06:00,65.6,64.4,30.09,North,8,0.0,1.0,96,0.00,,,0.18,WUHU216DAVISVP2,2013-08-19 15:06:00,
2013-08-19 11:11:00,65.9,65.0,30.09,North,8,1.0,1.0,97,0.00,,,0.18,WUHU216DAVISVP2,2013-08-19 15:11:00,
2013-08-19 11:16:00,66.1,64.9,30.09,North,8,0.0,1.0,96,0.00,,,0.18,WUHU216DAVISVP2,2013-08-19 15:16:00,
2013-08-19 11:21:00,66.1,64.6,30.09,North,8,1.0,3.0,95,0.00,,,0.18,WUHU216DAVISVP2,2013-08-19 15:21:00,
2013-08-19 11:26:00,66.1,64.6,30.09,North,8,1.0,3.0,95,0.00,,,0.18,WUHU216DAVISVP2,2013-08-19 15:26:00,
2013-08-19 11:31:00,66.2,65.0,30.10,North,8,0.0,3.0,96,0.00,,,0.18,WUHU216DAVISVP2,2013-08-19 15:31:00,
2013-08-19 11:36:00,66.4,64.9,30.10,North,8,0.0,3.0,95,0.00,,,0.18,WUHU216DAVISVP2,2013-08-19 15:36:00,
2013-08-19 11:41:00,66.5,65.0,30.09,North,8,0.0,2.0,95,0.00,,,0.18,WUHU216DAVISVP2,2013-08-19 15:41:00,
2013-08-19 11:46:00,66.7,65.5,30.09,North,8,0.0,1.0,96,0.00,,,0.18,WUHU216DAVISVP2,2013-08-19 15:46:00,
2013-08-19 11:51:00,66.8,65.3,30.09,North,8,0.0,3.0,95,0.00,,,0.18,WUHU216DAVISVP2,2013-08-19 15:51:00,
2013-08-19 11:56:00,67.1,65.9,30.09,North,8,0.0,3.0,96,0.00,,,0.18,WUHU216DAVISVP2,2013-08-19 15:56:00,
2013-08-19 12:01:00,67.4,65.9,30.09,North,8,0.0,3.0,95,0.00,,,0.18,WUHU216DAVISVP2,2013-08-19 16:01:00,
2013-08-19 12:06:00,67.5,66.3,30.09,North,8,0.0,3.0,96,0.00,,,0.18,WUHU216DAVISVP2,2013-08-19 16:06:00,
2013-08-19 12:11:00,67.7,66.2,30.09,North,8,0.0,2.0,95,0.00,,,0.18,WUHU216DAVISVP2,2013-08-19 16:11:00,
2013-08-19 12:16:00,67.8,66.3,30.09,North,8,0.0,2.0,95,0.00,,,0.18,WUHU216DAVISVP2,2013-08-19 16:16:00,
2013-08-19 12:21:00,68.1,66.6,30.09,North,8,0.0,2.0,95,0.00,,,0.18,WUHU216DAVISVP2,2013-08-19 16:21:00,
2013-08-19 12:26:00,68.3,66.8,30.09,North,8,0.0,1.0,95,0.00,,,0.18,WUHU216DAVISVP2,2013-08-19 16:26:00,
2013-08-19 12:31:00,69.0,67.8,30.08,North,8,0.0,1.0,96,0.00,,,0.18,WUHU216DAVISVP2,2013-08-19 16:31:00,
2013-08-19 12:36:00,69.8,68.3,30.08,North,8,0.0,2.0,95,0.00,,,0.18,WUHU216DAVISVP2,2013-08-19 16:36:00,
2013-08-19 12:41:00,70.4,68.3,30.08,North,8,0.0,2.0,93,0.00,,,0.18,WUHU216DAVISVP2,2013-08-19 16:41:00,
2013-08-19 12:46:00,70.7,68.6,30.08,North,8,0.0,2.0,93,0.00,,,0.18,WUHU216DAVISVP2,2013-08-19 16:46:00,
2013-08-19 12:51:00,70.8,68.4,30.08,North,8,0.0,2.0,92,0.00,,,0.18,WUHU216DAVISVP2,2013-08-19 16:51:00,
2013-08-19 12:56:00,70.8,68.0,30.08,North,8,0.0,2.0,91,0.00,,,0.18,WUHU216DAVISVP2,2013-08-19 16:56:00,
2013-08-19 13:01:00,71.0,68.6,30.08,North,8,1.0,3.0,92,0.00,,,0.18,WUHU216DAVISVP2,2013-08-19 17:01:00,
2013-08-19 13:06:00,71.1,68.3,30.08,North,8,0.0,3.0,91,0.00,,,0.18,WUHU216DAVISVP2,2013-08-19 17:06:00,
2013-08-19 13:11:00,71.2,68.4,30.07,North,8,1.0,3.0,91,0.00,,,0.18,WUHU216DAVISVP2,2013-08-19 17:11:00,
2013-08-19 13:16:00,71.5,68.4,30.07,North,8,0.0,3.0,90,0.00,,,0.18,WUHU216DAVISVP2,2013-08-19 17:16:00,
2013-08-19 13:21:00,71.8,68.1,30.07,North,8,0.0,2.0,88,0.00,,,0.18,WUHU216DAVISVP2,2013-08-19 17:21:00,
2013-08-19 13:26:00,72.0,68.6,30.07,North,8,0.0,2.0,89,0.00,,,0.18,WUHU216DAVISVP2,2013-08-19 17:26:00,
2013-08-19 13:31:00,72.1,67.7,30.07,North,8,0.0,2.0,86,0.00,,,0.18,WUHU216DAVISVP2,2013-08-19 17:31:00,
2013-08-19 13:36:00,72.6,68.8,30.07,NNE,16,0.0,2.0,88,0.00,,,0.18,WUHU216DAVISVP2,2013-08-19 17:36:00,
2013-08-19 13:41:00,72.8,68.1,30.07,ENE,73,1.0,4.0,85,0.00,,,0.18,WUHU216DAVISVP2,2013-08-19 17:41:00,
2013-08-19 13:46:00,72.9,67.8,30.07,ENE,74,1.0,4.0,84,0.00,,,0.18,WUHU216DAVISVP2,2013-08-19 17:46:00,
2013-08-19 13:51:00,73.0,68.3,30.07,North,4,2.0,4.0,85,0.00,,,0.18,WUHU216DAVISVP2,2013-08-19 17:51:00,
2013-08-19 13:56:00,73.1,68.4,30.07,NNW,330,1.0,4.0,85,0.00,,,0.18,WUHU216DAVISVP2,2013-08-19 17:56:00,
2013-08-19 14:01:00,73.2,68.5,30.07,NNW,334,3.0,7.0,85,0.00,,,0.18,WUHU216DAVISVP2,2013-08-19 18:01:00,
2013-08-19 14:06:00,73.7,68.9,30.07,North,354,2.0,7.0,85,0.00,,,0.18,WUHU216DAVISVP2,2013-08-19 18:06:00,
2013-08-19 14:11:00,74.4,69.0,30.07,NNW,343,4.0,7.0,83,0.00,,,0.18,WUHU216DAVISVP2,2013-08-19 18:11:00,
2013-08-19 14:16:00,74.6,68.8,30.06,NW,314,1.0,7.0,82,0.00,,,0.18,WUHU216DAVISVP2,2013-08-19 18:16:00,
2013-08-19 14:21:00,74.8,69.4,30.06,North,349,4.0,8.0,83,0.00,,,0.18,WUHU216DAVISVP2,2013-08-19 18:21:00,
2013-08-19 14:26:00,75.1,68.9,30.06,North,4,2.0,8.0,81,0.00,,,0.18,WUHU216DAVISVP2,2013-08-19 18:26:00,
2013-08-19 14:31:00,75.4,69.2,30.06,NNE,31,4.0,8.0,81,0.00,,,0.18,WUHU216DAVISVP2,2013-08-19 18:31:00,
2013-08-19 14:36:00,75.7,68.7,30.06,NW,326,5.0,8.0,79,0.00,,,0.18,WUHU216DAVISVP2,2013-08-19 18:36:00,
2013-08-19 14:41:00,75.6,68.6,30.06,North,354,2.0,8.0,79,0.00,,,0.18,WUHU216DAVISVP2,2013-08-19 18:41:00,
2013-08-19 14:46:00,75.7,69.5,30.06,NNE,18,1.0,8.0,81,0.00,,,0.18,WUHU216DAVISVP2,2013-08-19 18:46:00,
2013-08-19 14:51:00,75.8,68.4,30.06,WNW,303,1.0,8.0,78,0.00,,,0.18,WUHU216DAVISVP2,2013-08-19 18:51:00,
2013-08-19 14:56:00,75.9,68.2,30.06,WNW,293,0.0,6.0,77,0.00,,,0.18,WUHU216DAVISVP2,2013-08-19 18:56:00,
2013-08-19 15:01:00,76.0,68.0,30.06,WNW,302,2.0,5.0,76,0.00,,,0.18,WUHU216DAVISVP2,2013-08-19 19:01:00,
2013-08-19 15:06:00,75.9,67.9,30.06,NNW,330,3.0,6.0,76,0.00,,,0.18,WUHU216DAVISVP2,2013-08-19 19:06:00,
2013-08-19 15:11:00,75.9,67.6,30.06,NW,320,0.0,6.0,75,0.00,,,0.18,WUHU216DAVISVP2,2013-08-19 19:11:00,
2013-08-19 15:16:00,76.1,68.5,30.06,NW,318,0.0,6.0,77,0.00,,,0.18,WUHU216DAVISVP2,2013-08-19 19:16:00,
2013-08-19 15:21:00,76.2,67.9,30.05,NW,318,0.0,6.0,75,0.00,,,0.18,WUHU216DAVISVP2,2013-08-19 19:21:00,
2013-08-19 15:26:00,76.4,68.4,30.05,NNW,338,1.0,3.0,76,0.00,,,0.18,WUHU216DAVISVP2,2013-08-19 19:26:00,
2013-08-19 15:31:00,76.3,68.7,30.05,NNW,345,2.0,3.0,77,0.00,,,0.18,WUHU216DAVISVP2,2013-08-19 19:31:00,
2013-08-19 15:36:00,76.2,68.6,30.05,North,349,6.0,6.0,77,0.00,,,0.18,WUHU216DAVISVP2,2013-08-19 19:36:00,
2013-08-19 15:41:00,76.1,67.8,30.05,North,4,2.0,7.0,75,0.00,,,0.18,WUHU216DAVISVP2,2013-08-19 19:41:00,
2013-08-19 15:46:00,76.0,68.0,30.05,North,359,3.0,7.0,76,0.00,,,0.18,WUHU216DAVISVP2,2013-08-19 19:46:00,
2013-08-19 15:51:00,76.0,68.4,30.06,NNW,339,3.0,7.0,77,0.00,,,0.18,WUHU216DAVISVP2,2013-08-19 19:51:00,
2013-08-19 15:56:00,75.9,67.9,30.06,North,4,4.0,6.0,76,0.00,,,0.18,WUHU216DAVISVP2,2013-08-19 19:56:00,
2013-08-19 16:01:00,75.8,67.8,30.06,North,359,1.0,6.0,76,0.00,,,0.18,WUHU216DAVISVP2,2013-08-19 20:01:00,
2013-08-19 16:06:00,75.9,67.9,30.06,West,278,1.0,6.0,76,0.00,,,0.18,WUHU216DAVISVP2,2013-08-19 20:06:00,
2013-08-19 16:11:00,75.8,67.8,30.06,NNW,333,3.0,6.0,76,0.00,,,0.18,WUHU216DAVISVP2,2013-08-19 20:11:00,
2013-08-19 16:16:00,75.8,67.5,30.05,NW,326,0.0,5.0,75,0.00,,,0.18,WUHU216DAVISVP2,2013-08-19 20:16:00,
2013-08-19 16:21:00,75.8,67.8,30.05,NNW,333,4.0,6.0,76,0.00,,,0.18,WUHU216DAVISVP2,2013-08-19 20:21:00,
2013-08-19 16:26:00,75.5,67.6,30.05,North,4,4.0,6.0,76,0.00,,,0.18,WUHU216DAVISVP2,2013-08-19 20:26:00,
2013-08-19 16:31:00,75.5,68.3,30.05,North,359,4.0,8.0,78,0.00,,,0.00,WUHU216DAVISVP2,2013-08-19 20:31:00,
2013-08-19 16:36:00,75.6,68.4,30.05,NW,324,5.0,8.0,78,0.00,,,0.00,WUHU216DAVISVP2,2013-08-19 20:36:00,
2013-08-19 16:41:00,75.8,68.6,30.05,NNW,335,5.0,8.0,78,0.00,,,0.00,WUHU216DAVISVP2,2013-08-19 20:41:00,
2013-08-19 16:46:00,76.2,68.6,30.05,North,359,3.0,8.0,77,0.00,,,0.00,WUHU216DAVISVP2,2013-08-19 20:46:00,
2013-08-19 16:51:00,76.4,68.1,30.05,North,354,4.0,8.0,75,0.00,,,0.00,WUHU216DAVISVP2,2013-08-19 20:51:00,
2013-08-19 16:56:00,76.4,68.4,30.05,NNW,348,2.0,8.0,76,0.00,,,0.00,WUHU216DAVISVP2,2013-08-19 20:56:00,
2013-08-19 17:01:00,76.5,68.1,30.05,North,354,2.0,8.0,75,0.00,,,0.00,WUHU216DAVISVP2,2013-08-19 21:01:00,
2013-08-19 17:06:00,76.7,68.3,30.05,North,8,5.0,8.0,75,0.00,,,0.00,WUHU216DAVISVP2,2013-08-19 21:06:00,
2013-08-19 17:11:00,76.9,68.5,30.04,North,354,0.0,7.0,75,0.00,,,0.00,WUHU216DAVISVP2,2013-08-19 21:11:00,
2013-08-19 17:16:00,77.1,67.4,30.04,North,349,1.0,7.0,72,0.00,,,0.00,WUHU216DAVISVP2,2013-08-19 21:16:00,
2013-08-19 17:21:00,77.4,68.5,30.04,WNW,299,6.0,8.0,74,0.00,,,0.00,WUHU216DAVISVP2,2013-08-19 21:21:00,
2013-08-19 17:26:00,77.8,68.8,30.04,North,4,7.0,8.0,74,0.00,,,0.00,WUHU216DAVISVP2,2013-08-19 21:26:00,
2013-08-19 17:31:00,77.9,67.5,30.04,NW,326,3.0,8.0,70,0.00,,,0.00,WUHU216DAVISVP2,2013-08-19 21:31:00,
2013-08-19 17:36:00,77.9,68.3,30.04,NW,312,3.0,8.0,72,0.00,,,0.00,WUHU216DAVISVP2,2013-08-19 21:36:00,
2013-08-19 17:41:00,77.7,68.1,30.04,NW,320,5.0,8.0,72,0.00,,,0.00,WUHU216DAVISVP2,2013-08-19 21:41:00,
2013-08-19 17:46:00,77.7,67.3,30.04,NNW,329,1.0,7.0,70,0.00,,,0.00,WUHU216DAVISVP2,2013-08-19 21:46:00,
2013-08-19 17:51:00,77.9,67.9,30.04,North,359,1.0,7.0,71,0.00,,,0.00,WUHU216DAVISVP2,2013-08-19 21:51:00,
2013-08-19 17:56:00,78.2,68.6,30.04,NW,320,4.0,7.0,72,0.00,,,0.00,WUHU216DAVISVP2,2013-08-19 21:56:00,
2013-08-19 18:01:00,78.2,68.2,30.04,NW,320,4.0,7.0,71,0.00,,,0.00,WUHU216DAVISVP2,2013-08-19 22:01:00,
2013-08-19 18:06:00,78.3,68.3,30.04,NNW,346,4.0,5.0,71,0.00,,,0.00,WUHU216DAVISVP2,2013-08-19 22:06:00,
2013-08-19 18:11:00,78.2,67.8,30.04,North,359,0.0,6.0,70,0.00,,,0.00,WUHU216DAVISVP2,2013-08-19 22:11:00,
2013-08-19 18:16:00,78.2,67.6,30.04,NNE,21,1.0,6.0,70,0.00,,,0.00,WUHU216DAVISVP2,2013-08-19 22:16:00,
2013-08-19 18:21:00,78.2,68.0,30.04,NW,322,0.0,6.0,71,0.00,,,0.00,WUHU216DAVISVP2,2013-08-19 22:21:00,
2013-08-19 18:26:00,78.0,67.8,30.04,NNW,342,2.0,5.0,71,0.00,,,0.00,WUHU216DAVISVP2,2013-08-19 22:26:00,
2013-08-19 18:31:00,77.6,67.9,30.04,NNW,343,1.0,5.0,72,0.00,,,0.00,WUHU216DAVISVP2,2013-08-19 22:31:00,
2013-08-19 18:36:00,77.1,67.8,30.04,NNW,343,1.0,5.0,73,0.00,,,0.00,WUHU216DAVISVP2,2013-08-19 22:36:00,
2013-08-19 18:41:00,76.7,68.9,30.04,NNW,343,0.0,5.0,77,0.00,,,0.00,WUHU216DAVISVP2,2013-08-19 22:41:00,
2013-08-19 18:46:00,76.0,69.4,30.04,NNW,341,0.0,4.0,80,0.00,,,0.00,WUHU216DAVISVP2,2013-08-19 22:46:00,
2013-08-19 18:51:00,75.4,69.2,30.04,NNW,341,0.0,2.0,81,0.00,,,0.00,WUHU216DAVISVP2,2013-08-19 22:51:00,
2013-08-19 18:56:00,74.8,68.9,30.04,NNW,341,0.0,2.0,82,0.00,,,0.00,WUHU216DAVISVP2,2013-08-19 22:56:00,
2013-08-19 19:01:00,74.4,69.0,30.04,NNW,341,0.0,2.0,83,0.00,,,0.00,WUHU216DAVISVP2,2013-08-19 23:01:00,
2013-08-19 19:06:00,74.0,68.9,30.04,NNW,341,0.0,2.0,84,0.00,,,0.00,WUHU216DAVISVP2,2013-08-19 23:06:00,
2013-08-19 19:11:00,73.7,68.6,30.04,NNW,341,0.0,1.0,84,0.00,,,0.00,WUHU216DAVISVP2,2013-08-19 23:11:00,
2013-08-19 19:16:00,73.3,68.9,30.04,NNW,341,0.0,1.0,86,0.00,,,0.00,WUHU216DAVISVP2,2013-08-19 23:16:00,
2013-08-19 19:21:00,72.9,68.5,30.04,NNW,341,0.0,1.0,86,0.00,,,0.00,WUHU216DAVISVP2,2013-08-19 23:21:00,
2013-08-19 19:26:00,72.5,68.4,30.04,NNW,341,0.0,1.0,87,0.00,,,0.00,WUHU216DAVISVP2,2013-08-19 23:26:00,
2013-08-19 19:31:00,72.2,68.1,30.04,NNW,341,0.0,1.0,87,0.00,,,0.00,WUHU216DAVISVP2,2013-08-19 23:31:00,
2013-08-19 19:36:00,71.8,68.1,30.04,NNW,341,1.0,1.0,88,0.00,,,0.00,WUHU216DAVISVP2,2013-08-19 23:36:00,
2013-08-19 19:41:00,71.4,67.7,30.04,NNW,341,0.0,1.0,88,0.00,,,0.00,WUHU216DAVISVP2,2013-08-19 23:41:00,
2013-08-19 19:46:00,71.1,67.7,30.04,NNW,341,1.0,1.0,89,0.00,,,0.00,WUHU216DAVISVP2,2013-08-19 23:46:00,
2013-08-19 19:51:00,70.7,67.3,30.04,NNW,341,0.0,1.0,89,0.00,,,0.00,WUHU216DAVISVP2,2013-08-19 23:51:00,
2013-08-19 19:56:00,70.4,67.3,30.05,NNW,341,0.0,1.0,90,0.00,,,0.00,WUHU216DAVISVP2,2013-08-19 23:56:00,
2013-08-19 20:01:00,70.0,66.9,30.05,NNW,341,0.0,1.0,90,0.00,,,0.00,WUHU216DAVISVP2,2013-08-20 00:01:00,
2013-08-19 20:06:00,69.7,66.9,30.05,NNW,341,0.0,1.0,91,0.00,,,0.00,WUHU216DAVISVP2,2013-08-20 00:06:00,
2013-08-19 20:11:00,69.4,66.9,30.05,NNW,341,0.0,1.0,92,0.00,,,0.00,WUHU216DAVISVP2,2013-08-20 00:11:00,
2013-08-19 20:16:00,69.2,66.7,30.05,NNW,341,0.0,1.0,92,0.00,,,0.00,WUHU216DAVISVP2,2013-08-20 00:16:00,
2013-08-19 20:21:00,68.9,66.5,30.05,NNW,341,0.0,1.0,92,0.00,,,0.00,WUHU216DAVISVP2,2013-08-20 00:21:00,
2013-08-19 20:26:00,68.7,66.3,30.06,NNW,341,0.0,1.0,92,0.00,,,0.00,WUHU216DAVISVP2,2013-08-20 00:26:00,
2013-08-19 20:31:00,68.5,66.1,30.06,NNW,341,0.0,0.0,92,0.00,,,0.00,WUHU216DAVISVP2,2013-08-20 00:31:00,
2013-08-19 20:36:00,68.2,66.1,30.06,NNW,341,0.0,0.0,93,0.00,,,0.00,WUHU216DAVISVP2,2013-08-20 00:36:00,
2013-08-19 20:41:00,68.1,66.0,30.06,NNW,341,0.0,0.0,93,0.00,,,0.00,WUHU216DAVISVP2,2013-08-20 00:41:00,
2013-08-19 20:46:00,67.9,65.8,30.06,NNW,341,0.0,0.0,93,0.00,,,0.00,WUHU216DAVISVP2,2013-08-20 00:46:00,
2013-08-19 20:51:00,67.7,65.6,30.06,NNW,341,0.0,0.0,93,0.00,,,0.00,WUHU216DAVISVP2,2013-08-20 00:51:00,
2013-08-19 20:56:00,67.5,65.7,30.07,NNW,341,0.0,0.0,94,0.00,,,0.00,WUHU216DAVISVP2,2013-08-20 00:56:00,
2013-08-19 21:01:00,67.4,65.6,30.07,NNW,341,0.0,0.0,94,0.00,,,0.00,WUHU216DAVISVP2,2013-08-20 01:01:00,
2013-08-19 21:06:00,67.2,65.4,30.07,NNW,341,0.0,0.0,94,0.00,,,0.00,WUHU216DAVISVP2,2013-08-20 01:06:00,
2013-08-19 21:11:00,67.0,65.2,30.07,NNW,341,0.0,0.0,94,0.00,,,0.00,WUHU216DAVISVP2,2013-08-20 01:11:00,
2013-08-19 21:16:00,66.8,65.0,30.07,NNW,341,0.0,0.0,94,0.00,,,0.00,WUHU216DAVISVP2,2013-08-20 01:16:00,
2013-08-19 21:21:00,66.6,64.8,30.07,NNW,341,0.0,0.0,94,0.00,,,0.00,WUHU216DAVISVP2,2013-08-20 01:21:00,
2013-08-19 21:26:00,66.5,64.7,30.08,NNW,341,0.0,0.0,94,0.00,,,0.00,WUHU216DAVISVP2,2013-08-20 01:26:00,
2013-08-19 21:31:00,66.2,64.7,30.08,NNW,341,0.0,0.0,95,0.00,,,0.00,WUHU216DAVISVP2,2013-08-20 01:31:00,
2013-08-19 21:36:00,66.0,64.5,30.08,NNW,341,0.0,0.0,95,0.00,,,0.00,WUHU216DAVISVP2,2013-08-20 01:36:00,
2013-08-19 21:41:00,65.9,64.4,30.08,NNW,341,0.0,0.0,95,0.00,,,0.00,WUHU216DAVISVP2,2013-08-20 01:41:00,
2013-08-19 21:46:00,65.7,64.2,30.08,NNW,341,0.0,0.0,95,0.00,,,0.00,WUHU216DAVISVP2,2013-08-20 01:46:00,
2013-08-19 21:51:00,65.6,64.1,30.08,NNW,341,0.0,0.0,95,0.00,,,0.00,WUHU216DAVISVP2,2013-08-20 01:51:00,
2013-08-19 21:56:00,65.4,63.9,30.08,NNW,341,0.0,0.0,95,0.00,,,0.00,WUHU216DAVISVP2,2013-08-20 01:56:00,
2013-08-19 22:01:00,65.3,64.1,30.09,NNW,341,0.0,0.0,96,0.00,,,0.00,WUHU216DAVISVP2,2013-08-20 02:01:00,
2013-08-19 22:06:00,65.3,64.1,30.09,NNW,341,2.0,2.0,96,0.00,,,0.00,WUHU216DAVISVP2,2013-08-20 02:06:00,
2013-08-19 22:11:00,65.2,64.0,30.09,NNW,341,0.0,2.0,96,0.00,,,0.00,WUHU216DAVISVP2,2013-08-20 02:11:00,
2013-08-19 22:16:00,65.2,64.0,30.09,NNW,341,0.0,2.0,96,0.00,,,0.00,WUHU216DAVISVP2,2013-08-20 02:16:00,
2013-08-19 22:21:00,65.2,64.0,30.09,NNW,341,0.0,2.0,96,0.00,,,0.00,WUHU216DAVISVP2,2013-08-20 02:21:00,
2013-08-19 22:26:00,65.2,64.3,30.09,NNW,341,0.0,1.0,97,0.00,,,0.00,WUHU216DAVISVP2,2013-08-20 02:26:00,
2013-08-19 22:31:00,65.2,64.3,30.09,NNW,341,0.0,1.0,97,0.00,,,0.00,WUHU216DAVISVP2,2013-08-20 02:31:00,
2013-08-19 22:36:00,65.3,64.4,30.09,NNW,341,0.0,1.0,97,0.00,,,0.00,WUHU216DAVISVP2,2013-08-20 02:36:00,
2013-08-19 22:41:00,65.2,64.3,30.09,NNW,341,0.0,2.0,97,0.00,,,0.00,WUHU216DAVISVP2,2013-08-20 02:41:00,
2013-08-19 22:46:00,65.2,64.3,30.09,NNW,341,0.0,2.0,97,0.00,,,0.00,WUHU216DAVISVP2,2013-08-20 02:46:00,
2013-08-19 22:51:00,65.2,64.3,30.09,NNW,341,0.0,2.0,97,0.00,,,0.00,WUHU216DAVISVP2,2013-08-20 02:51:00,
2013-08-19 22:56:00,65.2,64.3,30.09,NNW,341,0.0,2.0,97,0.00,,,0.00,WUHU216DAVISVP2,2013-08-20 02:56:00,
2013-08-19 23:00:00,65.3,64.4,30.09,NNW,341,0.0,1.0,97,0.00,,,0.00,WUHU216DAVISVP2,2013-08-20 03:00:00,
2013-08-19 23:05:00,65.3,64.4,30.09,NNW,341,0.0,1.0,97,0.00,,,0.00,WUHU216DAVISVP2,2013-08-20 03:05:00,
2013-08-19 23:10:00,65.3,64.4,30.09,NNW,341,0.0,1.0,97,0.00,,,0.00,WUHU216DAVISVP2,2013-08-20 03:10:00,
2013-08-19 23:15:00,65.3,64.4,30.09,NNW,341,0.0,1.0,97,0.00,,,0.00,WUHU216DAVISVP2,2013-08-20 03:15:00,
2013-08-19 23:20:00,65.3,64.4,30.09,NNW,341,0.0,0.0,97,0.00,,,0.00,WUHU216DAVISVP2,2013-08-20 03:20:00,
2013-08-19 23:25:00,65.3,64.4,30.10,NNW,341,0.0,1.0,97,0.00,,,0.00,WUHU216DAVISVP2,2013-08-20 03:25:00,
2013-08-19 23:30:00,65.2,64.3,30.09,NNW,341,0.0,1.0,97,0.00,,,0.00,WUHU216DAVISVP2,2013-08-20 03:30:00,
2013-08-19 23:35:00,65.2,64.3,30.09,NNW,341,0.0,1.0,97,0.00,,,0.00,WUHU216DAVISVP2,2013-08-20 03:35:00,
2013-08-19 23:40:00,65.2,64.3,30.09,NNW,341,0.0,1.0,97,0.00,,,0.00,WUHU216DAVISVP2,2013-08-20 03:40:00,
2013-08-19 23:45:00,65.3,64.4,30.09,NNW,341,0.0,1.0,97,0.00,,,0.00,WUHU216DAVISVP2,2013-08-20 03:45:00,
2013-08-19 23:50:00,65.3,64.4,30.09,NNW,341,0.0,0.0,97,0.00,,,0.00,WUHU216DAVISVP2,2013-08-20 03:50:00,
2013-08-19 23:55:00,65.3,64.4,30.09,NNW,341,0.0,0.0,97,0.00,,,0.00,WUHU216DAVISVP2,2013-08-20 03:55:00,